Terremoto di magnitudo ML 4.2 del 10-04-2022 ore 02:58:03 (Italia) in zona: Albania [Land]

Un terremoto di magnitudo ML 4.2 è avvenuto nella zona: Albania [Land], il

  • 10-04-2022 00:58:03 (UTC)
  • 10-04-2022 02:58:03 (UTC +02:00) ora italiana

con coordinate geografiche (lat, lon) 42.2840, 20.1970 ad una profondità di 4 km.

Il terremoto è stato localizzato da: Sala Sismica INGV-Roma.

Ricerca terremoti: Qualsiasi nel raggio di 30 km

I valori delle coordinate ipocentrali e della magnitudo rappresentano la migliore stima con i dati a disposizione. Eventuali nuovi dati o analisi potrebbero far variare tali stime.

Visualizza la localizzazione con

Comuni entro 20 km dall'epicentro

Nessun comune italiano entro 20 km dall'epicentro.

Città più vicine con almeno 50000 abitanti

Nessun comune italiano entro 100 km dall'epicentro con almeno 50000 abitanti.

Sismicità recente e storica
Pericolosità sismica
Mappe di scuotimento
Mappa del risentimento sismico
Cronologia delle localizzazioni calcolate
Tipo Magnitudo Tempo origine (UTC) Latitudine Longitudine Profondità (km) Ora pubblicazione (UTC) Autore ID Localizzazione
Rivista
Rev100
ML 4.2 2022-04-10
00:58:03
42.2838 20.1968 4 2022-04-10
01:13:13
Sala Sismica INGV-Roma 103015561
Localizzazione e magnitudo preferite finora.
Parametri della localizzazione preferita

Localizzazione

Campo Valore
Tempo (UTC) 2022-04-10 00:58:03 ± 0.3
Latitudine 42.2838 ± 0.0090
Longitudine 20.1968 ± 0.0194
Profondità (km) 4 ± 1 (from location)
Metodo di valutazione manual
Stato della valutazione reviewed
Versione 100 -> SURVEY-INGV
Tipo di evento earthquake
ID localizzazione 103015561

Incertezze

Campo Valore
Tipo di incertezza uncertainty ellipse
Semi-asse maggiore dell'ellisse di confidenza (metri) 1604
Semi-asse minore dell'ellisse di confidenza (metri) 746
azimuth dell’asse maggiore dell’ellisse di confidenza (gradi) 252
Regione di confidenza sul piano orizzontale espressa mediante singolo valore di incertezza (metri) 1600.0
Livello di confidenza dell'incertezza (%) 68

Qualità

Campo Valore
Maggiore gap azimutale nella distribuzione delle stazioni all'epicentro 204
Numero di fasi associato indipendentemente se utilizzate nella localizzazione (determinazione dell'Origin) 132
Numero di fasi 21
Scarto quadratico medio dei residui di tempo risultanti dal calcolo del tempo origine (Origin) della localizzazione (sec) 0.36
Distanza epicentrale della stazione piu' vicina (gradi) 0.00000
Distanza epicentrale della stazione piu’ lontana (gradi) 3.51635
Numero di stazioni in cui l’evento e’ stato osservato 122
Numero di stazioni usate nel calcolo dell'Origin 17
Parametri della magnitudo

ML:4.2

Campo Valore
Valore 4.2
Incertezza 0.3
Num. stazioni usate 164
Tipo di magnitudo ML
Localizzazione di riferimento 103015561
Agenzia INGV
Autore Sala Sismica INGV-Roma
Tempo di creazione (UTC) 2022-04-10 01:13:12
Tempi di arrivo
SCNL Time Uncertainty Polarity Evaluation_mode Phase Azimuth Distance Takeoff_angle Residual Weight
ST.VARA.EHZ. 2022-04-10T01:01:19.72 3.0 undecidable manual Sn -3.45 0
ST.PANI.EHZ. 2022-04-10T01:01:19.70 3.0 undecidable manual Sn 0.88 0
IV.SSY.HHZ. 2022-04-10T01:00:50.47 3.0 undecidable manual Sn -5.25 0
IV.HLNI.HHZ. 2022-04-10T01:00:49.78 3.0 undecidable manual Sn -4.6 0
MN.TRI.HHZ. 2022-04-10T01:00:39.69 3.0 undecidable manual Sn 0.97 0
IV.ATCC.EHZ. 2022-04-10T01:00:35.28 3.0 undecidable manual Sn -0.31 0
IV.AIO.HHZ. 2022-04-10T01:00:34.66 3.0 undecidable manual Sn -3.47 0
IV.SOI.EHZ. 2022-04-10T01:00:26.32 3.0 undecidable manual Sn -0.1 0
IV.RM33.EHZ. 2022-04-10T01:00:25.34 3.0 undecidable manual Sn 1.11 0
IV.MSRU.HHZ. 2022-04-10T01:00:23.82 3.0 undecidable manual Sn -5.41 0
IV.MCRV.HHZ. 2022-04-10T00:59:58.45 3.0 undecidable manual Sn 1.56 0
IV.HAGA.HHZ. 2022-04-10T00:59:55.83 3.0 positive manual Pg 16.370001 0
IV.MMGO.HHZ. 2022-04-10T00:59:51.60 3.0 undecidable manual Pn -0.14 0
IV.SEI.HHZ. 2022-04-10T00:59:45.82 3.0 undecidable manual Pn 1.08 0
OX.CLUD.HHZ. 2022-04-10T00:59:45.47 3.0 positive manual Pn 0.78 0
NI.PALA.HHZ. 2022-04-10T00:59:44.42 3.0 positive manual Pn 1.74 0
IV.CSNT.HHZ. 2022-04-10T00:59:43.80 3.0 negative manual Pn -0.26 0
NI.POLC.HHZ. 2022-04-10T00:59:43.93 3.0 negative manual Pn -0.52 0
OX.PLRO.HHZ. 2022-04-10T00:59:43.80 3.0 positive manual Pn 0.38 0
IV.HVIT.HHZ. 2022-04-10T00:59:43.86 3.0 undecidable manual Pn -3.01 0
OX.FUSE.HHZ. 2022-04-10T00:59:42.74 3.0 positive manual Pn -0.68 0
OX.MPRI.HHZ. 2022-04-10T00:59:41.60 3.0 positive manual Pn -0.54 0
RF.GEPF.HHZ. 2022-04-10T00:59:40.53 3.0 positive manual Pn -0.71 0
IV.LMD.HHZ. 2022-04-10T00:59:40.91 3.0 undecidable manual Pn -0.52 0
OX.ACOM.HHZ. 2022-04-10T00:59:40.72 3.0 positive manual Pn 0.03 0
IV.SSY.HHZ. 2022-04-10T00:59:39.15 3.0 positive manual Pn -2.25 0
NI.VINO.HHZ. 2022-04-10T00:59:39.56 3.0 positive manual Pn -0.45 0
IV.HLNI.HHZ. 2022-04-10T00:59:38.07 3.0 negative manual Pn -2.58 0
IV.SSP9.EHZ. 2022-04-10T00:59:37.23 3.0 positive manual Pn 1.32 0
OX.DRE.HHZ. 2022-04-10T00:59:36.55 3.0 negative manual Pn 0.04 0
IV.CAFI.HHZ. 2022-04-10T00:59:36.90 3.0 positive manual Pn -0.16 0
IV.MGAB.HHZ. 2022-04-10T00:59:35.06 3.0 negative manual Pn -0.02 0
IV.PARC.HHZ. 2022-04-10T00:59:35.01 3.0 negative manual Pn -0.01 0
IV.BADI.EHZ. 2022-04-10T00:59:35.81 3.0 negative manual Pn 1.17 0
IV.ATMI.HHZ. 2022-04-10T00:59:34.62 3.0 positive manual Pn 0.56 0
OX.SABO.HHZ. 2022-04-10T00:59:34.99 3.0 positive manual Pn -0.09 0
OE.ARSA.BHZ. 2022-04-10T00:59:33.27 3.0 negative manual Pn -1.49 0
IV.ATVO.HHZ. 2022-04-10T00:59:33.36 3.0 negative manual Pn 0.59 0
IV.ATPI.EHZ. 2022-04-10T00:59:33.31 3.0 positive manual Pn 0.36 0
IV.PE3.EHZ. 2022-04-10T00:59:32.61 3.0 negative manual Pn -0.01 0
IV.PIEI.HHZ. 2022-04-10T00:59:31.64 3.0 undecidable manual Pn -0.19 0
MN.TRI.HHZ. 2022-04-10T00:59:31.12 3.0 negative manual Pn -0.73 0
IV.NARO.HHZ. 2022-04-10T00:59:31.40 3.0 positive manual Pn -0.16 0
IV.MOMA.HHZ. 2022-04-10T00:59:30.91 3.0 positive manual Pn 0.55 0
IV.CESX.HHZ. 2022-04-10T00:59:30.78 3.0 undecidable manual Pn 0.67 0
IV.ATCC.EHZ. 2022-04-10T00:59:29.90 3.0 positive manual Pn -0.19 0
IV.FRON.EHZ. 2022-04-10T00:59:29.27 3.0 negative manual Pn -0.63 0
IV.ATFO.HHZ. 2022-04-10T00:59:29.92 3.0 undecidable manual Pn -1.18 0
IV.ASSB.HHZ. 2022-04-10T00:59:29.68 3.0 negative manual Pn -0.02 0
SL.LJU.BHZ. 2022-04-10T00:59:29.22 3.0 undecidable manual Pn 0.4 0
IV.MPAG.EHZ. 2022-04-10T00:59:29.42 3.0 positive manual Pn -0.43 0
IV.FOSV.EHZ. 2022-04-10T00:59:28.81 3.0 negative manual Pn -0.26 0
IV.ARVD.HHZ. 2022-04-10T00:59:27.44 3.0 negative manual Pn -0.28 0
IV.CESI.HHZ. 2022-04-10T00:59:26.42 3.0 undecidable manual Pn -0.75 0
IV.SNTG.HHZ. 2022-04-10T00:59:26.42 3.0 undecidable manual Pn -0.78 0
IV.MML1.EHZ. 2022-04-10T00:59:26.60 3.0 positive manual Pn -0.05 0
IV.LNSS.HHZ. 2022-04-10T00:59:25.57 3.0 negative manual Pn 0.08 0
IV.NRCA.HHZ. 2022-04-10T00:59:25.03 3.0 negative manual Pn 0.16 0
IV.EL6.EHZ. 2022-04-10T00:59:25.41 3.0 positive manual Pn -0.34 0
IV.FIAM.HHZ. 2022-04-10T00:59:25.66 3.0 negative manual Pn 0.89 0
IV.FDMO.HHZ. 2022-04-10T00:59:25.29 3.0 positive manual Pn -0.09 0
IV.GIUL.HHZ. 2022-04-10T00:59:24.28 3.0 negative manual Pn -0.17 0
IV.CSP1.EHZ. 2022-04-10T00:59:24.17 3.0 positive manual Pn -0.11 0
IV.CING.HHZ. 2022-04-10T00:59:24.78 3.0 positive manual Pn -0.14 0
IV.SOI.EHZ. 2022-04-10T00:59:23.98 3.0 positive manual Pn -0.96 0
IV.RM33.EHZ. 2022-04-10T00:59:23.85 3.0 undecidable manual Pn 0.14 0
IV.PTQR.HHZ. 2022-04-10T00:59:22.35 3.0 undecidable manual Pn 0.25 0
IV.MMO1.EHZ. 2022-04-10T00:59:22.98 3.0 positive manual Pn 0.19 0
IV.SMA1.EHZ. 2022-04-10T00:59:22.62 3.0 positive manual Pn 0.12 0
IV.MF5.EHZ. 2022-04-10T00:59:21.98 3.0 positive manual Pn 0.41 0
IV.JOPP.HHZ. 2022-04-10T00:59:21.94 3.0 negative manual Pn 1.65 0
IV.LRP.EHZ. 2022-04-10T00:59:20.89 3.0 positive manual Pn 0.03 0
IV.VVLD.HHZ. 2022-04-10T00:59:20.07 3.0 negative manual Pn 0.02 0
IV.POFI.HHZ. 2022-04-10T00:59:20.47 3.0 positive manual Pn 1.04 0
IV.FAGN.HHZ. 2022-04-10T00:59:20.00 3.0 positive manual Pn 0 0
SL.BOJS.BHZ. 2022-04-10T00:59:20.17 3.0 positive manual Pn 1.47 0
SL.KOGS.BHZ. 2022-04-10T00:59:19.92 3.0 positive manual Pn -1.88 0
IV.TERO.HHZ. 2022-04-10T00:59:19.25 3.0 undecidable manual Pn -0.52 0
IV.T0110.HHZ. 2022-04-10T00:59:18.18 3.0 undecidable manual Pn 0.12 0
IV.CERA.HHZ. 2022-04-10T00:59:17.39 3.0 positive manual Pn 0.8 0
IV.PLAC.HHZ. 2022-04-10T00:59:17.31 3.0 positive manual Pn -1.01 0
IV.PIGN.HHZ. 2022-04-10T00:59:16.14 3.0 negative manual Pn -0.04 0
MN.KLV.HHZ. 2022-04-10T00:59:16.05 3.0 positive manual Pn 1.63 0
IV.INTR.HHZ. 2022-04-10T00:59:16.99 3.0 positive manual Pn 0.03 0
IV.RNI2.HHZ. 2022-04-10T00:59:15.94 3.0 positive manual Pn 0.97 0
IV.MIDA.HHZ. 2022-04-10T00:59:14.26 3.0 negative manual Pn 0.18 0
IV.LPEL.HHZ. 2022-04-10T00:59:14.94 3.0 positive manual Pn 0.87 0
IV.VAGA.HHZ. 2022-04-10T00:59:14.93 3.0 positive manual Pn 0.02 0
IV.SGG.HHZ. 2022-04-10T00:59:13.51 3.0 negative manual Pn -0.03 0
IV.PTRJ.HHZ. 2022-04-10T00:59:12.11 3.0 negative manual Pn 0 0
IV.CAR1.HHZ. 2022-04-10T00:59:11.03 3.0 undecidable manual Pn -0.33 0
IV.VITU.HHZ. 2022-04-10T00:59:11.91 3.0 positive manual Pn 0.16 0
IV.BULG.HHZ. 2022-04-10T00:59:11.64 3.0 positive manual Pn 0.67 0
IV.BSSO.HHZ. 2022-04-10T00:59:10.94 3.0 positive manual Pn 0.05 0
IV.SACR.HHZ. 2022-04-10T00:59:09.13 3.0 negative manual Pn -1.09 0
IV.CMPR.HHZ. 2022-04-10T00:59:09.04 3.0 undecidable manual Pn -0.9 0
IV.SPS2.HHZ. 2022-04-10T00:59:09.50 3.0 positive manual Pn -0.55 0
IV.GATE.HHZ. 2022-04-10T00:59:08.00 3.0 positive manual Pn 0.21 0
IV.MMN.HHZ. 2022-04-10T00:59:08.75 3.0 negative manual Pn 1.56 0
MN.TIP.HHZ. 2022-04-10T00:59:07.27 3.0 positive manual Pn -1 0
IV.SLCN.HHZ. 2022-04-10T00:59:06.03 3.0 negative manual Pn -0.41 0
IV.MCEL.HHZ. 2022-04-10T00:59:05.09 3.0 negative manual Pn -0.29 0
IV.MRLC.HHZ. 2022-04-10T00:59:05.01 3.0 undecidable manual Pn -0.43 0
IV.MELA.HHZ. 2022-04-10T00:59:04.83 3.0 positive manual Pn -0.24 0
IV.LADO.EHZ. 2022-04-10T00:59:04.81 3.0 positive manual Pn -0.86 0
IV.CAFE.HHZ. 2022-04-10T00:59:04.78 3.0 undecidable manual Pn -1.66 0
IV.ACER.HHZ. 2022-04-10T00:59:00.38 0.3 undecidable manual P 246 3.5163 38 0.31 16
IV.APRC.HHZ. 2022-04-10T00:58:59.70 3.0 negative manual Pn -1.03 0
IV.PALZ.HHZ. 2022-04-10T00:58:59.90 0.3 undecidable manual P 248 3.4372 38 0.93 13
OT.OT05.EHZ. 2022-04-10T00:58:58.37 3.0 undecidable manual Pn -2.02 0
MN.BLY.HHZ. 2022-04-10T00:58:57.74 0.6 undecidable manual P 319 3.2915 38 0.77 10
IV.SGRT.HHZ. 2022-04-10T00:58:57.49 3.0 positive manual Pn -1.22 0
IV.MSAG.HHZ. 2022-04-10T00:58:56.12 0.1 undecidable manual P 261 3.2349 38 -0.06 24
OT.OT12.EHZ. 2022-04-10T00:58:56.08 0.3 undecidable manual P 260 3.2528 38 -0.35 17
OT.OT14.EHZ. 2022-04-10T00:58:55.71 0.1 undecidable manual P 264 3.2043 38 -0.05 24
IV.MRVN.HHZ. 2022-04-10T00:58:55.98 0.3 undecidable manual P 249 3.2268 38 -0.09 18
IV.AMUR.HHZ. 2022-04-10T00:58:53.03 0.3 undecidable manual P 244 3.0172 38 -0.14 18
OT.TAR1.HHZ. 2022-04-10T00:58:50.40 0.3 undecidable manual P 232 2.8023 38 0.2 18
IV.NOCI.HHZ. 2022-04-10T00:58:49.83 0.3 undecidable manual P 239 2.7789 38 -0.05 19
MN.KEK.HHZ. 2022-04-10T00:58:48.51 3.0 undecidable manual Pn 0.33 0
AC.SRN.HHZ. 2022-04-10T00:58:46.65 3.0 positive manual Pn 0.94 0
CR.STON.BHZ. 2022-04-10T00:58:38.53 0.1 undecidable manual P 289 1.9299 38 0.38 51
AC.KBN.HHE. 2022-04-10T00:58:35.98 0.6 undecidable manual P 165 1.7168 38 0.76 26
MN.PDG.HHZ. 2022-04-10T00:58:28.66 0.3 undecidable manual S 282 0.7069 50 -0.04 67
AC.PHP.HHN. 2022-04-10T00:58:26.93 0.6 undecidable manual S 163 0.6259 50 0.63 39
MN.TIR.HHZ. 2022-04-10T00:58:23.40 0.6 undecidable manual P 195 0.9686 50 0.73 35
MN.PDG.HHZ. 2022-04-10T00:58:16.51 0.3 undecidable manual P 282 0.7069 50 -1.67 34
AC.PHP.HHN. 2022-04-10T00:58:16.02 0.1 undecidable manual P 163 0.6259 50 -0.78 73
AC.PUK.HHZ. 2022-04-10T00:58:16.71 0.3 undecidable manual S 223 0.3301 97 0.09 71
AC.PUK.HHZ. 2022-04-10T00:58:10.99 0.3 undecidable manual P 223 0.3301 97 -0.22 69
AC.BCI.HHZ. 2022-04-10T00:58:09.18 0.3 undecidable manual S 311 0.1268 107 0.26 71
AC.BCI.HHZ. 2022-04-10T00:58:06.79 0.1 undecidable manual P 311 0.1268 107 0.03 100
Ampiezza e Magnitudo per ciascuna stazione
SCNL mag Generic_amplitude Period Type Category Unit Time_window_reference
MN.PDG.HHN. ML:4.6 0.0513 0.52 AML other m 2022-04-10T00:58:29.21
MN.PDG.HNN. ML:4.6 0.0509 0.52 AML other m 2022-04-10T00:58:29.22
MN.PDG.HHE. ML:4.2 0.025 0.64 AML other m 2022-04-10T00:58:30.50
MN.PDG.HNE. ML:4.2 0.02475 0.62 AML other m 2022-04-10T00:58:30.50
MN.TIR.HHE. ML:3.9 0.006605000000000001 0.48 AML other m 2022-04-10T00:58:45.95
MN.TIR.HHN. ML:3.9 0.006615 0.88 AML other m 2022-04-10T00:58:51.40
CR.STON.BHE. ML:4.1 0.003125 0.84 AML other m 2022-04-10T00:59:09.42
CR.STON.BHN. ML:4.4 0.006345 0.44 AML other m 2022-04-10T00:59:12.30
IV.VITU.HNE. ML:4.1 0.00041349999999999997 1.22 AML other m 2022-04-10T00:59:15.01
IV.VITU.HNN. ML:4.4 0.0009035 0.42 AML other m 2022-04-10T00:59:21.97
IV.VITU.HHN. ML:4.4 0.0009199999999999999 0.42 AML other m 2022-04-10T00:59:21.97
IV.PIGN.HHE. ML:4.1 0.00035 0.52 AML other m 2022-04-10T00:59:23.51
IV.PIGN.HNE. ML:4.1 0.0003215 0.52 AML other m 2022-04-10T00:59:23.51
IV.RNI2.HHE. ML:4.3 0.0005975 0.44 AML other m 2022-04-10T00:59:25.30
IV.RNI2.HNE. ML:4.3 0.0005615 0.44 AML other m 2022-04-10T00:59:25.31
IV.PIGN.HHN. ML:4.0 0.000253 0.44 AML other m 2022-04-10T00:59:25.98
IV.PIGN.HNN. ML:4.0 0.000251 0.52 AML other m 2022-04-10T00:59:26.70
IV.VITU.HHE. ML:4.5 0.0010950000000000003 0.36 AML other m 2022-04-10T00:59:31.21
IV.FAGN.HHN. ML:4.6 0.0008975 0.34 AML other m 2022-04-10T00:59:31.71
IV.AMUR.HHE. ML:4.0 0.0008620000000000001 1.08 AML other m 2022-04-10T00:59:32.65
IV.AMUR.HHN. ML:4.0 0.0010015 1.54 AML other m 2022-04-10T00:59:32.95
IV.AMUR.HNN. ML:4.0 0.0009345 0.38 AML other m 2022-04-10T00:59:32.76
IV.AMUR.HNE. ML:4.0 0.000877 0.66 AML other m 2022-04-10T00:59:33.03
AC.SRN.HHE. ML:3.4 0.000389 0.82 AML other m 2022-04-10T00:59:38.58
OT.OT12.EHN. ML:4.0 0.0007654999999999999 0.36 AML other m 2022-04-10T00:59:39.86
IV.NOCI.HHN. ML:4.0 0.0013250000000000002 1.12 AML other m 2022-04-10T00:59:44.19
IV.NOCI.HNN. ML:4.0 0.001315 1.12 AML other m 2022-04-10T00:59:44.19
MN.KEK.HHN. ML:3.6 0.0006085 1.3 AML other m 2022-04-10T00:59:44.76
IV.NOCI.HNE. ML:3.9 0.001024 1.52 AML other m 2022-04-10T00:59:45.83
IV.NOCI.HHE. ML:3.9 0.0010364999999999999 1.5 AML other m 2022-04-10T00:59:45.83
AC.SRN.HHN. ML:3.3 0.000336 0.76 AML other m 2022-04-10T00:59:47.20
OT.TAR1.HHN. ML:4.0 0.0010075 0.56 AML other m 2022-04-10T00:59:48.86
MN.KEK.HHE. ML:3.8 0.0009094999999999999 0.7 AML other m 2022-04-10T00:59:48.46
IV.ACER.HNE. ML:4.3 0.0011949999999999999 1.66 AML other m 2022-04-10T00:59:49.07
IV.ACER.HHE. ML:4.3 0.0012349999999999998 1.66 AML other m 2022-04-10T00:59:49.07
OT.TAR1.HHE. ML:4.0 0.00109 0.78 AML other m 2022-04-10T00:59:49.50
OT.OT14.EHE. ML:4.5 0.00256 0.58 AML other m 2022-04-10T00:59:55.44
IV.LADO.EHN. ML:4.0 0.0005425 0.4 AML other m 2022-04-10T00:59:55.57
IV.LADO.EHE. ML:4.1 0.0006075000000000001 0.36 AML other m 2022-04-10T00:59:56.07
MN.TIP.HHE. ML:3.6 0.0001475 1.52 AML other m 2022-04-10T00:59:57.92
IV.MRVN.HHE. ML:3.8 0.0004925 0.8 AML other m 2022-04-10T00:59:59.47
MN.TIP.HHN. ML:3.5 0.00013450000000000002 0.52 AML other m 2022-04-10T00:59:59.46
IV.CAFE.HHN. ML:4.0 0.000495 0.76 AML other m 2022-04-10T01:00:00.02
IV.CAFE.HNN. ML:4.0 0.0004685 0.74 AML other m 2022-04-10T01:00:00.03
IV.CMPR.HHN. ML:3.9 0.00032250000000000003 0.4 AML other m 2022-04-10T01:00:00.45
IV.MMN.HHE. ML:4.2 0.0007395 0.92 AML other m 2022-04-10T01:00:01.09
IV.SGRT.HHN. ML:4.2 0.001038 0.5 AML other m 2022-04-10T01:00:01.57
IV.MMN.HHN. ML:4.3 0.0008959999999999999 0.9 AML other m 2022-04-10T01:00:01.81
OT.OT14.EHN. ML:4.5 0.0027 0.56 AML other m 2022-04-10T01:00:02.04
IV.SGRT.HHE. ML:4.2 0.001102 0.66 AML other m 2022-04-10T01:00:02.15
IV.MSAG.HHE. ML:3.8 0.00044050000000000003 0.76 AML other m 2022-04-10T01:00:03.06
IV.MSAG.HNE. ML:4.2 0.001125 0.74 AML other m 2022-04-10T01:00:03.07
IV.MCEL.HNE. ML:4.3 0.0010055 1.08 AML other m 2022-04-10T01:00:03.73
OT.OT12.EHE. ML:3.9 0.00066 0.48 AML other m 2022-04-10T01:00:04.02
IV.MCEL.HHN. ML:4.1 0.0006105 0.66 AML other m 2022-04-10T01:00:04.48
IV.MCEL.HNN. ML:4.3 0.001035 0.68 AML other m 2022-04-10T01:00:04.04
IV.SLCN.HHN. ML:4.1 0.000628 0.36 AML other m 2022-04-10T01:00:04.40
IV.BULG.HNE. ML:4.2 0.000557 0.44 AML other m 2022-04-10T01:00:04.47
IV.BULG.HHE. ML:4.2 0.0005989999999999999 0.44 AML other m 2022-04-10T01:00:04.69
IV.ACER.HHN. ML:4.4 0.00152 0.64 AML other m 2022-04-10T01:00:04.38
IV.ACER.HNN. ML:4.4 0.00148 0.64 AML other m 2022-04-10T01:00:04.38
IV.MRVN.HHN. ML:3.7 0.00040649999999999996 1.36 AML other m 2022-04-10T01:00:04.08
IV.MCRV.HHE. ML:4.0 0.0003845 0.42 AML other m 2022-04-10T01:00:04.79
IV.CMPR.HNN. ML:3.9 0.000297 0.4 AML other m 2022-04-10T01:00:05.83
IV.SACR.HHN. ML:3.9 0.000322 0.52 AML other m 2022-04-10T01:00:06.40
IV.SACR.HNN. ML:4.0 0.00032999999999999994 0.52 AML other m 2022-04-10T01:00:06.40
MN.BLY.HHE. ML:4.4 0.0019199999999999998 0.64 AML other m 2022-04-10T01:00:06.53
MN.BLY.HNE. ML:4.4 0.001935 0.64 AML other m 2022-04-10T01:00:06.53
IV.APRC.HHE. ML:4.2 0.001065 0.78 AML other m 2022-04-10T01:00:06.61
IV.SPS2.HHN. ML:3.7 0.00019800000000000002 1.1 AML other m 2022-04-10T01:00:06.80
IV.BULG.HHN. ML:4.3 0.0007785 0.44 AML other m 2022-04-10T01:00:06.39
IV.BULG.HNN. ML:4.3 0.0007395 0.46 AML other m 2022-04-10T01:00:06.39
OT.OT05.EHE. ML:2.2 0.00000902 0.42 AML other m 2022-04-10T01:00:06.69
IV.APRC.HHN. ML:4.2 0.0011149999999999999 1.3 AML other m 2022-04-10T01:00:07.25
IV.CMPR.HHE. ML:3.9 0.00032950000000000004 0.42 AML other m 2022-04-10T01:00:08.20
IV.CMPR.HNE. ML:3.9 0.000326 0.44 AML other m 2022-04-10T01:00:08.20
IV.SPS2.HHE. ML:3.6 0.0001465 0.68 AML other m 2022-04-10T01:00:08.46
OT.OT05.EHN. ML:4.2 0.0009145000000000001 0.66 AML other m 2022-04-10T01:00:08.28
MN.BLY.HHN. ML:4.2 0.001125 1.26 AML other m 2022-04-10T01:00:09.03
MN.BLY.HNN. ML:4.2 0.001125 1.26 AML other m 2022-04-10T01:00:09.04
IV.PALZ.HHE. ML:4.3 0.00143 1.58 AML other m 2022-04-10T01:00:10.81
IV.VAGA.HHE. ML:4.4 0.0007285000000000001 1.18 AML other m 2022-04-10T01:00:11.74
IV.LPEL.HHE. ML:4.3 0.000639 0.48 AML other m 2022-04-10T01:00:11.61
IV.LPEL.HNE. ML:4.3 0.0006339999999999999 0.48 AML other m 2022-04-10T01:00:11.86
IV.MIDA.HHN. ML:4.3 0.0005725 0.54 AML other m 2022-04-10T01:00:13.26
IV.MIDA.HNN. ML:4.2 0.000524 0.72 AML other m 2022-04-10T01:00:13.27
IV.MIDA.HHE. ML:4.3 0.000571 0.58 AML other m 2022-04-10T01:00:13.96
IV.MIDA.HNE. ML:4.3 0.0005560000000000001 0.56 AML other m 2022-04-10T01:00:13.96
IV.VAGA.HNE. ML:4.4 0.0006905 1.08 AML other m 2022-04-10T01:00:14.22
IV.MSAG.HHN. ML:4.1 0.0010249999999999999 0.6 AML other m 2022-04-10T01:00:14.29
IV.MSAG.HNN. ML:4.5 0.002525 0.6 AML other m 2022-04-10T01:00:14.29
IV.PALZ.HHN. ML:4.4 0.001745 0.96 AML other m 2022-04-10T01:00:14.57
IV.INTR.HHN. ML:4.5 0.0008340000000000001 0.42 AML other m 2022-04-10T01:00:14.73
IV.INTR.HNN. ML:4.5 0.0008309999999999999 0.4 AML other m 2022-04-10T01:00:14.53
IV.PLAC.HHE. ML:3.9 0.0002095 1.46 AML other m 2022-04-10T01:00:14.78
IV.PLAC.HNE. ML:4.0 0.00025 1.34 AML other m 2022-04-10T01:00:14.81
IV.PLAC.HHN. ML:4.3 0.0004625 0.52 AML other m 2022-04-10T01:00:14.97
IV.PLAC.HNN. ML:4.4 0.0005669999999999999 1.46 AML other m 2022-04-10T01:00:15.75
IV.SLCN.HNN. ML:4.1 0.0005975 0.92 AML other m 2022-04-10T01:00:15.05
IV.GATE.HHN. ML:4.2 0.0006670000000000001 0.54 AML other m 2022-04-10T01:00:15.01
IV.GATE.HNN. ML:4.2 0.000687 0.58 AML other m 2022-04-10T01:00:15.00
IV.LPEL.HNN. ML:4.2 0.0005425 1.2 AML other m 2022-04-10T01:00:17.95
IV.LPEL.HHN. ML:4.2 0.0005380000000000001 1.2 AML other m 2022-04-10T01:00:17.95
IV.JOPP.HHE. ML:3.9 0.000162 0.36 AML other m 2022-04-10T01:00:18.16
IV.JOPP.HNE. ML:3.9 0.0001615 0.36 AML other m 2022-04-10T01:00:18.16
IV.JOPP.HHN. ML:4.0 0.0001995 1.56 AML other m 2022-04-10T01:00:18.98
IV.JOPP.HNN. ML:3.9 0.000175 1.56 AML other m 2022-04-10T01:00:18.99
IV.T0110.HHN. ML:4.5 0.0007090000000000001 1.56 AML other m 2022-04-10T01:00:18.97
IV.MELA.HNE. ML:4.6 0.0017800000000000001 0.8 AML other m 2022-04-10T01:00:19.94
IV.MELA.HHE. ML:4.6 0.001765 0.74 AML other m 2022-04-10T01:00:19.93
IV.VAGA.HNN. ML:4.5 0.000902 0.42 AML other m 2022-04-10T01:00:20.67
IV.VAGA.HHN. ML:4.5 0.0009490000000000001 0.42 AML other m 2022-04-10T01:00:20.88
IV.RNI2.HHN. ML:4.3 0.0006435 0.9 AML other m 2022-04-10T01:00:21.10
IV.RNI2.HNN. ML:4.3 0.0006359999999999998 0.92 AML other m 2022-04-10T01:00:21.56
SL.KOGS.BHE. ML:4.8 0.001265 0.6 AML other m 2022-04-10T01:00:21.27
IV.GATE.HNE. ML:4.1 0.00054 1.1 AML other m 2022-04-10T01:00:21.86
IV.GATE.HHE. ML:4.1 0.0005275 1.1 AML other m 2022-04-10T01:00:21.87
IV.MF5.EHE. ML:4.6 0.000766 0.56 AML other m 2022-04-10T01:00:21.73
IV.MELA.HNN. ML:4.5 0.0016899999999999999 0.58 AML other m 2022-04-10T01:00:21.64
IV.MELA.HHN. ML:4.5 0.001675 0.56 AML other m 2022-04-10T01:00:21.93
IV.MF5.EHN. ML:4.6 0.0008554999999999999 1.46 AML other m 2022-04-10T01:00:21.24
IV.POFI.HHN. ML:3.8 0.0001595 1.14 AML other m 2022-04-10T01:00:21.42
IV.INTR.HHE. ML:4.4 0.0006314999999999999 0.6 AML other m 2022-04-10T01:00:22.50
IV.INTR.HNE. ML:4.4 0.000648 0.6 AML other m 2022-04-10T01:00:22.51
IV.VVLD.HNN. ML:4.3 0.00045299999999999995 0.56 AML other m 2022-04-10T01:00:24.57
IV.VVLD.HHN. ML:4.3 0.00041749999999999996 0.42 AML other m 2022-04-10T01:00:24.59
IV.MRLC.HNN. ML:3.6 0.0002155 0.62 AML other m 2022-04-10T01:00:24.49
IV.MRLC.HHN. ML:4.0 0.00045850000000000003 0.62 AML other m 2022-04-10T01:00:24.49
IV.CAFE.HNE. ML:4.0 0.0005055000000000001 0.42 AML other m 2022-04-10T01:00:25.45
IV.CAFE.HHE. ML:4.0 0.0004985 0.42 AML other m 2022-04-10T01:00:25.45
IV.T0110.HHE. ML:4.5 0.000768 1.5 AML other m 2022-04-10T01:00:25.78
IV.MRLC.HHE. ML:4.0 0.0005275000000000001 0.62 AML other m 2022-04-10T01:00:26.02
IV.MRLC.HNE. ML:3.7 0.000263 0.6 AML other m 2022-04-10T01:00:26.03
IV.POFI.HHE. ML:4.0 0.00021700000000000002 0.88 AML other m 2022-04-10T01:00:26.11
IV.VVLD.HNE. ML:4.3 0.00041500000000000006 0.64 AML other m 2022-04-10T01:00:26.22
IV.RM33.HNN. ML:4.4 0.000503 0.64 AML other m 2022-04-10T01:00:26.67
IV.SLCN.HNE. ML:4.3 0.000874 1.4 AML other m 2022-04-10T01:00:26.22
IV.SLCN.HHE. ML:4.3 0.0009115 1.4 AML other m 2022-04-10T01:00:26.22
IV.NRCA.HNE. ML:4.5 0.000528 0.8 AML other m 2022-04-10T01:00:27.49
IV.MCRV.HHN. ML:4.0 0.00041200000000000004 0.74 AML other m 2022-04-10T01:00:27.53
IV.MCEL.HHE. ML:4.0 0.00047 0.54 AML other m 2022-04-10T01:00:27.01
IV.RM33.HNE. ML:4.4 0.0005175 0.9 AML other m 2022-04-10T01:00:27.33
IV.NRCA.HHN. ML:4.7 0.0009390000000000001 0.82 AML other m 2022-04-10T01:00:27.48
IV.NRCA.HNN. ML:4.6 0.0007490000000000001 0.82 AML other m 2022-04-10T01:00:27.08
IV.FAGN.HHE. ML:4.8 0.0014399999999999999 0.48 AML other m 2022-04-10T01:00:28.32
IV.RM33.EHE. ML:4.4 0.000494 0.54 AML other m 2022-04-10T01:00:28.50
IV.NRCA.HHE. ML:4.4 0.0004645 0.46 AML other m 2022-04-10T01:00:28.49
IV.RM33.EHN. ML:4.4 0.000461 0.52 AML other m 2022-04-10T01:00:28.60
IV.FIAM.HHN. ML:4.3 0.0003465 0.56 AML other m 2022-04-10T01:00:28.37
IV.MSRU.HHN. ML:4.4 0.00038 0.96 AML other m 2022-04-10T01:00:30.57
IV.VVLD.HHE. ML:4.2 0.0003845 0.64 AML other m 2022-04-10T01:00:30.10
IV.EL6.EHE. ML:4.7 0.0008715000000000001 0.46 AML other m 2022-04-10T01:00:30.35
IV.FIAM.HHE. ML:4.2 0.000254 0.48 AML other m 2022-04-10T01:00:30.79
IV.MSRU.HHE. ML:4.4 0.0003845 1.12 AML other m 2022-04-10T01:00:30.70
IV.EL6.EHN. ML:4.8 0.0010575 0.58 AML other m 2022-04-10T01:00:30.54
IV.SOI.EHN. ML:4.1 0.00019600000000000002 1.38 AML other m 2022-04-10T01:00:31.03
IV.SOI.EHE. ML:4.2 0.000261 0.58 AML other m 2022-04-10T01:00:31.52
IV.CSP1.EHN. ML:4.7 0.0009245 0.42 AML other m 2022-04-10T01:00:34.71
IV.SACR.HHE. ML:3.9 0.0003055 0.84 AML other m 2022-04-10T01:00:36.11
IV.SACR.HNE. ML:3.9 0.000306 0.8 AML other m 2022-04-10T01:00:36.13
IV.CSP1.EHE. ML:4.7 0.000886 1.36 AML other m 2022-04-10T01:00:40.21
SL.BOJS.BHN. ML:4.4 0.0006525000000000001 1.4 AML other m 2022-04-10T01:00:48.89
SL.BOJS.BHE. ML:4.6 0.000953 1.3 AML other m 2022-04-10T01:00:48.34
SL.KOGS.BHN. ML:4.9 0.001515 1.1 AML other m 2022-04-10T01:00:56.07
TDMT - Time Domain Moment Tensor
Meccanismi di sorgente sismica nell'area
Download
Tipo Descrizione Link
QuakeML - small Event, Origin, FocalMechanism Download
QuakeML - full Event, Origin, FocalMechanism, Amplitude, Arrival, Pick, Station Magnitude Download
Forme d'onda Segnali sismici in formato miniseed + resp Download